QPF
0.00 0.00 0.00 0.00 0.00 0.00 0.00 0.00 0.00 0.00 0.00 0.00 0.00 0.00 0.00 0.01 0.01 0.02 0.01 0.00 0.00 0.01 0.01 0.02 0.03 0.03 0.03 0.02 0.02 0.02 0.02 0.02 0.02 0.03 0.03 0.04 0.04 0.03 0.03 0.04 0.05 0.06 0.08 0.06 0.07 0.09 0.07 0.06 0.09
0.00 0.00 0.00 0.00 0.00 0.01 0.00 0.00 0.00 0.00 0.00 0.00 0.00 0.00 0.01 0.03 0.01 0.00 0.00 0.00 0.01 0.01 0.02 0.01 0.03 0.03 0.03 0.02 0.02 0.01 0.02 0.02 0.02 0.03 0.03 0.03 0.02 0.02 0.03 0.04 0.05 0.08 0.11 0.08 0.07 0.10 0.08 0.06 0.09
0.00 0.00 0.00 0.00 0.00 0.00 0.00 0.00 0.00 0.00 0.00 0.00 0.01 0.01 0.02 0.03 0.01 0.01 0.01 0.01 0.01 0.01 0.01 0.02 0.03 0.03 0.02 0.02 0.02 0.02 0.02 0.03 0.02 0.03 0.03 0.03 0.03 0.03 0.03 0.04 0.06 0.09 0.10 0.09 0.07 0.06 0.06 0.06 0.06
0.00 0.00 0.00 0.00 0.00 0.00 0.00 0.00 0.00 0.00 0.00 0.00 0.01 0.01 0.02 0.02 0.02 0.02 0.01 0.02 0.01 0.00 0.01 0.02 0.04 0.03 0.03 0.03 0.04 0.03 0.02 0.03 0.04 0.04 0.05 0.04 0.03 0.02 0.03 0.03 0.05 0.07 0.07 0.07 0.08 0.08 0.06 0.06 0.06
0.00 0.00 0.00 0.00 0.00 0.00 0.00 0.00 0.00 0.00 0.00 0.00 0.00 0.01 0.01 0.01 0.01 0.02 0.02 0.02 0.02 0.02 0.02 0.03 0.05 0.05 0.05 0.05 0.05 0.04 0.03 0.04 0.05 0.04 0.05 0.05 0.04 0.02 0.02 0.03 0.04 0.04 0.04 0.06 0.06 0.08 0.06 0.06 0.07
0.00 0.00 0.00 0.00 0.00 0.00 0.00 0.00 0.00 0.00 0.00 0.00 0.00 0.00 0.01 0.01 0.01 0.02 0.02 0.02 0.03 0.03 0.03 0.03 0.05 0.05 0.06 0.06 0.05 0.04 0.04 0.04 0.05 0.06 0.05 0.05 0.03 0.02 0.02 0.03 0.03 0.03 0.04 0.05 0.04 0.04 0.05 0.07 0.08
0.00 0.00 0.00 0.00 0.00 0.00 0.00 0.00 0.00 0.00 0.00 0.00 0.00 0.00 0.01 0.00 0.01 0.02 0.03 0.03 0.03 0.03 0.03 0.03 0.04 0.04 0.05 0.06 0.05 0.04 0.04 0.04 0.04 0.05 0.05 0.04 0.03 0.02 0.03 0.03 0.02 0.03 0.04 0.04 0.04 0.04 0.05 0.06 0.07
0.00 0.00 0.00 0.00 0.00 0.00 0.00 0.00 0.00 0.00 0.00 0.00 0.00 0.01 0.01 0.00 0.00 0.02 0.04 0.04 0.04 0.04 0.03 0.03 0.03 0.04 0.04 0.04 0.06 0.05 0.04 0.05 0.05 0.06 0.06 0.05 0.04 0.03 0.04 0.03 0.03 0.04 0.04 0.03 0.03 0.03 0.04 0.04 0.05
0.00 0.00 0.00 0.00 0.00 0.00 0.00 0.00 0.00 0.00 0.00 0.00 0.00 0.00 0.00 0.00 0.00 0.01 0.02 0.02 0.04 0.06 0.04 0.03 0.03 0.04 0.04 0.02 0.04 0.09 0.07 0.07 0.07 0.08 0.07 0.06 0.05 0.05 0.04 0.04 0.04 0.03 0.03 0.04 0.03 0.03 0.04 0.04 0.04
0.00 0.00 0.00 0.00 0.00 0.00 0.00 0.00 0.00 0.00 0.00 0.00 0.00 0.00 0.00 0.00 0.00 0.01 0.02 0.02 0.02 0.03 0.04 0.05 0.03 0.02 0.02 0.02 0.03 0.07 0.08 0.09 0.09 0.11 0.09 0.08 0.07 0.05 0.04 0.05 0.05 0.03 0.03 0.03 0.04 0.03 0.03 0.04 0.05
0.00 0.00 0.00 0.00 0.00 0.00 0.00 0.00 0.00 0.00 0.00 0.00 0.00 0.00 0.00 0.00 0.00 0.01 0.01 0.01 0.01 0.01 0.03 0.06 0.05 0.02 0.02 0.02 0.03 0.04 0.06 0.08 0.09 0.11 0.10 0.10 0.09 0.07 0.05 0.05 0.04 0.04 0.03 0.04 0.03 0.03 0.03 0.03 0.03
0.00 0.00 0.00 0.00 0.00 0.00 0.00 0.00 0.00 0.00 0.00 0.00 0.00 0.00 0.00 0.00 0.00 0.00 0.01 0.01 0.01 0.01 0.04 0.06 0.07 0.04 0.02 0.02 0.02 0.02 0.03 0.06 0.07 0.09 0.08 0.08 0.09 0.11 0.10 0.06 0.05 0.04 0.04 0.04 0.03 0.03 0.02 0.02 0.02
0.00 0.00 0.00 0.00 0.00 0.00 0.00 0.01 0.01 0.00 0.00 0.00 0.00 0.00 0.00 0.00 0.00 0.01 0.02 0.02 0.01 0.02 0.03 0.03 0.04 0.04 0.03 0.02 0.02 0.01 0.02 0.03 0.04 0.07 0.09 0.07 0.10 0.10 0.11 0.10 0.07 0.05 0.05 0.05 0.04 0.02 0.02 0.02 0.02
0.00 0.00 0.00 0.00 0.00 0.00 0.00 0.01 0.01 0.00 0.00 0.00 0.00 0.00 0.00 0.01 0.01 0.01 0.02 0.02 0.02 0.03 0.02 0.01 0.03 0.03 0.03 0.04 0.02 0.02 0.02 0.02 0.02 0.04 0.07 0.06 0.08 0.09 0.09 0.10 0.09 0.08 0.07 0.06 0.04 0.03 0.03 0.03 0.02
0.00 0.00 0.00 0.00 0.00 0.00 0.00 0.00 0.00 0.00 0.00 0.00 0.00 0.00 0.00 0.01 0.01 0.01 0.01 0.01 0.01 0.02 0.03 0.02 0.03 0.06 0.03 0.04 0.03 0.02 0.02 0.01 0.02 0.03 0.04 0.05 0.06 0.06 0.07 0.07 0.08 0.09 0.09 0.08 0.06 0.05 0.03 0.03 0.02
0.00 0.00 0.00 0.00 0.00 0.00 0.00 0.00 0.00 0.00 0.00 0.00 0.00 0.00 0.00 0.01 0.01 0.01 0.01 0.01 0.01 0.02 0.04 0.04 0.07 0.09 0.05 0.05 0.04 0.03 0.02 0.02 0.02 0.03 0.05 0.06 0.05 0.05 0.05 0.05 0.06 0.07 0.08 0.07 0.07 0.05 0.04 0.03 0.03
0.00 0.00 0.00 0.00 0.00 0.00 0.00 0.00 0.00 0.00 0.00 0.00 0.00 0.01 0.01 0.01 0.00 0.01 0.01 0.01 0.01 0.02 0.03 0.04 0.08 0.10 0.07 0.07 0.06 0.07 0.05 0.04 0.04 0.04 0.05 0.06 0.05 0.04 0.04 0.05 0.05 0.05 0.05 0.05 0.05 0.04 0.04 0.03 0.02
0.00 0.00 0.00 0.00 0.00 0.00 0.00 0.00 0.00 0.00 0.00 0.00 0.00 0.00 0.01 0.01 0.01 0.01 0.01 0.01 0.01 0.01 0.02 0.02 0.06 0.11 0.10 0.08 0.08 0.08 0.10 0.12 0.09 0.05 0.04 0.04 0.03 0.03 0.03 0.04 0.04 0.05 0.05 0.04 0.04 0.04 0.04 0.03 0.02
0.00 0.00 0.00 0.00 0.00 0.00 0.00 0.00 0.00 0.00 0.00 0.00 0.00 0.00 0.00 0.01 0.01 0.01 0.01 0.01 0.01 0.01 0.02 0.02 0.02 0.05 0.05 0.06 0.08 0.08 0.07 0.12 0.16 0.10 0.05 0.03 0.02 0.03 0.04 0.03 0.04 0.04 0.03 0.03 0.03 0.04 0.03 0.03 0.03
0.00 0.00 0.00 0.00 0.00 0.00 0.00 0.00 0.00 0.00 0.00 0.00 0.00 0.00 0.00 0.01 0.01 0.00 0.00 0.00 0.00 0.01 0.02 0.02 0.02 0.02 0.03 0.04 0.06 0.09 0.07 0.06 0.06 0.05 0.03 0.02 0.02 0.03 0.03 0.04 0.04 0.03 0.03 0.03 0.03 0.03 0.03 0.02 0.03
0.00 0.00 0.00 0.00 0.00 0.00 0.00 0.00 0.00 0.00 0.00 0.00 0.00 0.00 0.00 0.00 0.00 0.00 0.00 0.00 0.00 0.01 0.01 0.01 0.01 0.03 0.04 0.03 0.03 0.06 0.08 0.06 0.04 0.03 0.02 0.02 0.02 0.03 0.03 0.03 0.04 0.03 0.02 0.02 0.03 0.03 0.03 0.02 0.02
0.00 0.00 0.00 0.00 0.00 0.00 0.00 0.00 0.00 0.00 0.00 0.00 0.00 0.00 0.00 0.00 0.00 0.00 0.01 0.01 0.00 0.01 0.01 0.01 0.02 0.03 0.05 0.04 0.03 0.04 0.05 0.04 0.03 0.02 0.02 0.02 0.02 0.03 0.03 0.03 0.03 0.03 0.02 0.02 0.02 0.03 0.03 0.03 0.02
0.00 0.00 0.00 0.00 0.00 0.00 0.00 0.00 0.00 0.00 0.00 0.00 0.00 0.00 0.00 0.00 0.00 0.00 0.01 0.01 0.01 0.01 0.01 0.01 0.02 0.03 0.06 0.06 0.04 0.05 0.04 0.03 0.03 0.03 0.02 0.02 0.02 0.02 0.03 0.03 0.03 0.03 0.03 0.02 0.02 0.02 0.03 0.02 0.02
0.00 0.00 0.00 0.00 0.00 0.00 0.00 0.00 0.00 0.00 0.01 0.01 0.01 0.00 0.00 0.00 0.00 0.00 0.01 0.01 0.01 0.01 0.02 0.02 0.03 0.03 0.04 0.04 0.04 0.04 0.04 0.04 0.04 0.04 0.04 0.03 0.02 0.02 0.02 0.02 0.02 0.02 0.02 0.02 0.02 0.02 0.02 0.02 0.02
0.01 0.01 0.01 0.01 0.01 0.00 0.00 0.00 0.01 0.02 0.02 0.05 0.01 0.01 0.01 0.01 0.00 0.00 0.01 0.01 0.01 0.01 0.01 0.02 0.04 0.04 0.03 0.03 0.03 0.03 0.04 0.04 0.05 0.04 0.03 0.02 0.01 0.01 0.02 0.02 0.02 0.02 0.02 0.02 0.02 0.02 0.01 0.02 0.02
0.01 0.01 0.01 0.01 0.01 0.01 0.00 0.01 0.05 0.08 0.04 0.03 0.01 0.01 0.01 0.00 0.01 0.00 0.01 0.01 0.01 0.01 0.02 0.03 0.03 0.03 0.03 0.03 0.05 0.05 0.05 0.05 0.04 0.03 0.02 0.02 0.01 0.01 0.02 0.02 0.03 0.03 0.03 0.03 0.03 0.02 0.02 0.01 0.02
0.01 0.01 0.01 0.01 0.01 0.01 0.01 0.03 0.07 0.05 0.02 0.01 0.01 0.01 0.01 0.01 0.01 0.01 0.01 0.01 0.01 0.01 0.02 0.03 0.03 0.03 0.03 0.05 0.05 0.05 0.05 0.05 0.04 0.03 0.02 0.01 0.01 0.02 0.03 0.03 0.03 0.04 0.04 0.05 0.05 0.04 0.03 0.03 0.03
0.01 0.01 0.02 0.02 0.02 0.01 0.01 0.04 0.05 0.03 0.02 0.02 0.01 0.01 0.01 0.01 0.02 0.02 0.02 0.02 0.01 0.01 0.02 0.02 0.03 0.04 0.04 0.05 0.04 0.03 0.03 0.03 0.02 0.02 0.02 0.02 0.02 0.03 0.03 0.03 0.04 0.05 0.05 0.06 0.06 0.05 0.04 0.04 0.04
0.02 0.01 0.02 0.02 0.01 0.01 0.02 0.06 0.05 0.02 0.01 0.01 0.02 0.01 0.01 0.01 0.01 0.02 0.02 0.02 0.01 0.01 0.02 0.02 0.02 0.02 0.03 0.03 0.04 0.03 0.03 0.02 0.02 0.01 0.01 0.02 0.03 0.04 0.04 0.04 0.05 0.05 0.05 0.05 0.05 0.05 0.05 0.06 0.07
0.02 0.02 0.03 0.02 0.02 0.02 0.02 0.05 0.04 0.02 0.03 0.03 0.02 0.02 0.01 0.01 0.01 0.02 0.01 0.01 0.02 0.02 0.02 0.03 0.04 0.03 0.02 0.02 0.02 0.02 0.03 0.03 0.02 0.02 0.02 0.02 0.04 0.05 0.04 0.04 0.04 0.04 0.04 0.04 0.04 0.04 0.05 0.07 0.07
MSLP
1009.67 1009.94 1010.34 1010.81 1011.29 1011.70 1012.02 1012.21 1012.31 1012.34 1012.37 1012.45 1012.59 1012.79 1013.02 1013.25 1013.41 1013.47 1013.42 1013.28 1013.09 1012.90 1012.75 1012.68 1012.68 1012.73 1012.80 1012.85 1012.86 1012.81 1012.73 1012.66 1012.63 1012.68 1012.81 1013.01 1013.26 1013.50 1013.71 1013.86 1013.94 1013.98 1014.00 1014.04 1014.13 1014.27 1014.43 1014.58 1014.69
1009.71 1010.04 1010.46 1010.91 1011.33 1011.67 1011.90 1012.02 1012.05 1012.05 1012.07 1012.15 1012.30 1012.52 1012.78 1013.02 1013.20 1013.28 1013.25 1013.14 1012.99 1012.83 1012.72 1012.69 1012.73 1012.82 1012.93 1013.02 1013.08 1013.08 1013.05 1013.03 1013.04 1013.10 1013.23 1013.42 1013.64 1013.84 1014.01 1014.12 1014.18 1014.20 1014.23 1014.29 1014.40 1014.55 1014.73 1014.89 1014.99
1009.91 1010.26 1010.66 1011.04 1011.36 1011.58 1011.70 1011.73 1011.71 1011.69 1011.72 1011.82 1012.02 1012.28 1012.57 1012.83 1013.02 1013.11 1013.09 1013.00 1012.86 1012.73 1012.66 1012.66 1012.75 1012.89 1013.05 1013.20 1013.31 1013.38 1013.42 1013.45 1013.51 1013.61 1013.75 1013.93 1014.12 1014.30 1014.42 1014.50 1014.53 1014.55 1014.58 1014.65 1014.77 1014.92 1015.10 1015.24 1015.32
1010.22 1010.57 1010.90 1011.18 1011.37 1011.45 1011.45 1011.39 1011.33 1011.30 1011.36 1011.53 1011.78 1012.10 1012.44 1012.73 1012.93 1013.02 1013.00 1012.91 1012.78 1012.67 1012.63 1012.67 1012.80 1012.99 1013.20 1013.41 1013.58 1013.71 1013.82 1013.91 1014.02 1014.15 1014.32 1014.50 1014.67 1014.81 1014.91 1014.96 1014.98 1014.99 1015.02 1015.10 1015.22 1015.37 1015.52 1015.63 1015.67
1010.59 1010.90 1011.14 1011.29 1011.33 1011.27 1011.15 1011.02 1010.93 1010.93 1011.05 1011.29 1011.64 1012.03 1012.41 1012.73 1012.95 1013.04 1013.01 1012.92 1012.80 1012.71 1012.70 1012.77 1012.94 1013.16 1013.42 1013.67 1013.88 1014.07 1014.22 1014.36 1014.51 1014.68 1014.86 1015.04 1015.20 1015.33 1015.41 1015.44 1015.45 1015.46 1015.50 1015.57 1015.69 1015.83 1015.96 1016.03 1016.02
1010.95 1011.19 1011.31 1011.32 1011.21 1011.02 1010.81 1010.63 1010.55 1010.60 1010.80 1011.14 1011.57 1012.04 1012.48 1012.83 1013.06 1013.15 1013.13 1013.04 1012.93 1012.87 1012.89 1012.99 1013.19 1013.44 1013.71 1013.98 1014.21 1014.42 1014.59 1014.76 1014.93 1015.12 1015.31 1015.49 1015.65 1015.77 1015.83 1015.86 1015.86 1015.87 1015.91 1015.99 1016.11 1016.24 1016.34 1016.38 1016.33
1011.21 1011.36 1011.36 1011.23 1011.00 1010.71 1010.44 1010.25 1010.19 1010.31 1010.60 1011.04 1011.56 1012.10 1012.59 1012.97 1013.21 1013.31 1013.30 1013.23 1013.16 1013.14 1013.19 1013.33 1013.54 1013.80 1014.07 1014.32 1014.55 1014.73 1014.90 1015.07 1015.24 1015.43 1015.63 1015.81 1015.96 1016.07 1016.13 1016.14 1016.15 1016.16 1016.20 1016.29 1016.41 1016.53 1016.62 1016.64 1016.57
1011.32 1011.37 1011.26 1011.02 1010.70 1010.35 1010.05 1009.88 1009.88 1010.07 1010.45 1010.97 1011.57 1012.16 1012.69 1013.09 1013.35 1013.47 1013.48 1013.46 1013.43 1013.46 1013.56 1013.73 1013.96 1014.21 1014.46 1014.67 1014.85 1015.00 1015.14 1015.28 1015.44 1015.62 1015.81 1015.99 1016.13 1016.23 1016.28 1016.29 1016.28 1016.30 1016.35 1016.44 1016.57 1016.70 1016.79 1016.81 1016.74
1011.26 1011.22 1011.02 1010.70 1010.32 1009.96 1009.68 1009.55 1009.61 1009.89 1010.34 1010.93 1011.57 1012.19 1012.73 1013.14 1013.41 1013.56 1013.62 1013.65 1013.69 1013.78 1013.93 1014.14 1014.38 1014.62 1014.83 1015.00 1015.12 1015.21 1015.29 1015.39 1015.53 1015.70 1015.88 1016.05 1016.19 1016.28 1016.32 1016.32 1016.31 1016.32 1016.37 1016.47 1016.61 1016.76 1016.88 1016.92 1016.86
1011.06 1010.95 1010.68 1010.32 1009.93 1009.58 1009.35 1009.28 1009.42 1009.76 1010.27 1010.89 1011.55 1012.17 1012.70 1013.11 1013.39 1013.56 1013.67 1013.77 1013.89 1014.05 1014.27 1014.52 1014.77 1014.99 1015.16 1015.27 1015.33 1015.35 1015.39 1015.45 1015.57 1015.72 1015.90 1016.07 1016.21 1016.29 1016.32 1016.31 1016.29 1016.29 1016.34 1016.45 1016.61 1016.79 1016.94 1017.02 1017.00
1010.80 1010.62 1010.32 1009.95 1009.57 1009.27 1009.10 1009.11 1009.31 1009.71 1010.25 1010.88 1011.52 1012.12 1012.62 1013.01 1013.29 1013.49 1013.65 1013.81 1014.01 1014.25 1014.53 1014.82 1015.09 1015.30 1015.43 1015.49 1015.49 1015.47 1015.46 1015.50 1015.60 1015.75 1015.93 1016.11 1016.25 1016.33 1016.35 1016.33 1016.30 1016.29 1016.34 1016.46 1016.64 1016.85 1017.04 1017.17 1017.21
1010.53 1010.32 1010.00 1009.64 1009.31 1009.06 1008.96 1009.04 1009.31 1009.73 1010.28 1010.89 1011.49 1012.04 1012.50 1012.87 1013.14 1013.36 1013.57 1013.80 1014.07 1014.38 1014.72 1015.04 1015.32 1015.52 1015.63 1015.65 1015.62 1015.56 1015.53 1015.56 1015.66 1015.83 1016.02 1016.21 1016.37 1016.45 1016.47 1016.44 1016.40 1016.39 1016.44 1016.57 1016.76 1017.00 1017.24 1017.42 1017.51
1010.35 1010.11 1009.78 1009.45 1009.16 1008.98 1008.95 1009.08 1009.38 1009.83 1010.36 1010.93 1011.48 1011.98 1012.39 1012.72 1012.99 1013.23 1013.47 1013.75 1014.08 1014.45 1014.83 1015.18 1015.48 1015.68 1015.78 1015.78 1015.73 1015.67 1015.64 1015.67 1015.79 1015.96 1016.18 1016.39 1016.56 1016.66 1016.68 1016.65 1016.61 1016.59 1016.65 1016.78 1017.00 1017.27 1017.54 1017.76 1017.90
1010.30 1010.03 1009.71 1009.39 1009.14 1009.01 1009.03 1009.20 1009.52 1009.96 1010.47 1010.99 1011.49 1011.93 1012.30 1012.60 1012.86 1013.11 1013.38 1013.69 1014.06 1014.47 1014.88 1015.26 1015.57 1015.78 1015.88 1015.89 1015.85 1015.79 1015.77 1015.83 1015.96 1016.16 1016.39 1016.62 1016.80 1016.92 1016.95 1016.93 1016.90 1016.89 1016.95 1017.10 1017.33 1017.62 1017.92 1018.18 1018.36
1010.37 1010.08 1009.75 1009.45 1009.23 1009.13 1009.17 1009.36 1009.68 1010.10 1010.56 1011.04 1011.49 1011.88 1012.21 1012.50 1012.75 1013.01 1013.30 1013.64 1014.03 1014.45 1014.88 1015.28 1015.60 1015.82 1015.95 1015.98 1015.96 1015.94 1015.94 1016.01 1016.15 1016.36 1016.61 1016.85 1017.04 1017.17 1017.22 1017.22 1017.21 1017.21 1017.29 1017.45 1017.69 1017.99 1018.31 1018.60 1018.81
1010.54 1010.22 1009.88 1009.58 1009.37 1009.28 1009.33 1009.51 1009.81 1010.19 1010.61 1011.03 1011.44 1011.80 1012.11 1012.39 1012.64 1012.92 1013.22 1013.57 1013.97 1014.40 1014.84 1015.24 1015.58 1015.83 1015.98 1016.06 1016.08 1016.08 1016.11 1016.19 1016.34 1016.55 1016.79 1017.02 1017.22 1017.36 1017.43 1017.46 1017.47 1017.51 1017.60 1017.77 1018.02 1018.33 1018.66 1018.96 1019.18
1010.73 1010.38 1010.03 1009.73 1009.53 1009.43 1009.47 1009.62 1009.87 1010.19 1010.56 1010.93 1011.30 1011.63 1011.93 1012.22 1012.49 1012.78 1013.10 1013.45 1013.86 1014.29 1014.73 1015.14 1015.50 1015.78 1015.98 1016.10 1016.17 1016.22 1016.27 1016.36 1016.50 1016.69 1016.90 1017.12 1017.31 1017.45 1017.55 1017.61 1017.66 1017.72 1017.84 1018.02 1018.28 1018.59 1018.91 1019.21 1019.44
1010.86 1010.51 1010.17 1009.88 1009.67 1009.57 1009.58 1009.68 1009.86 1010.11 1010.40 1010.72 1011.03 1011.34 1011.65 1011.94 1012.24 1012.55 1012.89 1013.26 1013.66 1014.09 1014.54 1014.96 1015.35 1015.68 1015.93 1016.11 1016.24 1016.32 1016.40 1016.49 1016.61 1016.77 1016.95 1017.13 1017.31 1017.46 1017.58 1017.67 1017.75 1017.86 1018.00 1018.20 1018.45 1018.74 1019.05 1019.34 1019.57
1010.89 1010.57 1010.26 1010.00 1009.82 1009.71 1009.67 1009.71 1009.81 1009.96 1010.15 1010.38 1010.64 1010.92 1011.22 1011.53 1011.85 1012.20 1012.56 1012.95 1013.36 1013.80 1014.26 1014.71 1015.13 1015.51 1015.82 1016.07 1016.26 1016.39 1016.49 1016.58 1016.69 1016.80 1016.94 1017.10 1017.25 1017.40 1017.54 1017.67 1017.80 1017.94 1018.11 1018.31 1018.55 1018.82 1019.11 1019.37 1019.59
1010.81 1010.55 1010.32 1010.13 1009.98 1009.88 1009.80 1009.76 1009.75 1009.77 1009.83 1009.95 1010.13 1010.36 1010.64 1010.97 1011.32 1011.70 1012.10 1012.51 1012.95 1013.40 1013.88 1014.35 1014.82 1015.25 1015.64 1015.96 1016.21 1016.40 1016.54 1016.64 1016.72 1016.81 1016.91 1017.04 1017.18 1017.33 1017.49 1017.66 1017.82 1018.00 1018.18 1018.39 1018.61 1018.85 1019.10 1019.33 1019.53
1010.63 1010.49 1010.38 1010.30 1010.22 1010.13 1010.01 1009.88 1009.73 1009.59 1009.50 1009.48 1009.54 1009.70 1009.95 1010.27 1010.65 1011.06 1011.50 1011.95 1012.42 1012.90 1013.40 1013.91 1014.42 1014.91 1015.37 1015.76 1016.09 1016.34 1016.51 1016.63 1016.72 1016.79 1016.88 1016.98 1017.11 1017.28 1017.46 1017.66 1017.86 1018.06 1018.26 1018.46 1018.66 1018.86 1019.06 1019.25 1019.43
1010.40 1010.43 1010.49 1010.54 1010.55 1010.49 1010.34 1010.10 1009.80 1009.48 1009.20 1009.00 1008.92 1008.98 1009.16 1009.47 1009.86 1010.31 1010.78 1011.28 1011.78 1012.30 1012.83 1013.37 1013.92 1014.47 1014.99 1015.46 1015.86 1016.17 1016.40 1016.56 1016.66 1016.74 1016.82 1016.92 1017.05 1017.23 1017.44 1017.66 1017.90 1018.12 1018.33 1018.52 1018.69 1018.85 1019.01 1019.15 1019.30
1010.19 1010.42 1010.66 1010.87 1010.99 1010.95 1010.76 1010.41 1009.94 1009.43 1008.94 1008.54 1008.30 1008.23 1008.34 1008.60 1008.99 1009.47 1009.98 1010.51 1011.05 1011.60 1012.16 1012.73 1013.32 1013.92 1014.49 1015.03 1015.49 1015.88 1016.17 1016.37 1016.51 1016.61 1016.70 1016.81 1016.96 1017.16 1017.39 1017.64 1017.89 1018.13 1018.35 1018.52 1018.67 1018.80 1018.91 1019.02 1019.14
1010.05 1010.47 1010.91 1011.27 1011.47 1011.47 1011.23 1010.77 1010.14 1009.42 1008.71 1008.11 1007.69 1007.48 1007.49 1007.70 1008.08 1008.56 1009.10 1009.67 1010.24 1010.81 1011.40 1012.00 1012.61 1013.24 1013.86 1014.45 1014.98 1015.43 1015.78 1016.04 1016.23 1016.36 1016.48 1016.62 1016.79 1017.00 1017.25 1017.52 1017.79 1018.04 1018.26 1018.43 1018.56 1018.66 1018.75 1018.84 1018.94
1009.97 1010.57 1011.16 1011.65 1011.93 1011.94 1011.65 1011.08 1010.29 1009.39 1008.49 1007.69 1007.09 1006.74 1006.65 1006.79 1007.13 1007.61 1008.16 1008.74 1009.33 1009.93 1010.53 1011.14 1011.78 1012.43 1013.09 1013.72 1014.31 1014.82 1015.23 1015.55 1015.79 1015.97 1016.13 1016.29 1016.48 1016.70 1016.97 1017.25 1017.54 1017.80 1018.02 1018.20 1018.33 1018.42 1018.49 1018.57 1018.67
1009.93 1010.66 1011.36 1011.92 1012.24 1012.24 1011.90 1011.24 1010.33 1009.27 1008.20 1007.24 1006.49 1006.01 1005.81 1005.88 1006.17 1006.62 1007.16 1007.74 1008.34 1008.94 1009.55 1010.17 1010.82 1011.49 1012.18 1012.85 1013.48 1014.05 1014.53 1014.91 1015.20 1015.43 1015.62 1015.80 1016.01 1016.25 1016.52 1016.81 1017.11 1017.38 1017.62 1017.80 1017.94 1018.05 1018.13 1018.22 1018.33
1009.88 1010.65 1011.39 1011.98 1012.30 1012.28 1011.89 1011.16 1010.16 1009.00 1007.82 1006.75 1005.88 1005.29 1004.99 1004.98 1005.21 1005.61 1006.12 1006.68 1007.27 1007.86 1008.47 1009.10 1009.76 1010.45 1011.16 1011.87 1012.54 1013.16 1013.69 1014.13 1014.48 1014.75 1014.97 1015.18 1015.40 1015.65 1015.92 1016.22 1016.53 1016.81 1017.07 1017.27 1017.44 1017.57 1017.68 1017.80 1017.94
1009.74 1010.48 1011.19 1011.74 1012.02 1011.97 1011.55 1010.79 1009.76 1008.56 1007.33 1006.20 1005.27 1004.60 1004.22 1004.12 1004.27 1004.61 1005.06 1005.58 1006.14 1006.72 1007.32 1007.95 1008.62 1009.33 1010.07 1010.81 1011.54 1012.20 1012.79 1013.29 1013.68 1013.99 1014.25 1014.48 1014.71 1014.96 1015.24 1015.54 1015.85 1016.15 1016.42 1016.66 1016.87 1017.03 1017.19 1017.34 1017.51
1009.47 1010.12 1010.72 1011.18 1011.40 1011.31 1010.88 1010.14 1009.13 1007.97 1006.76 1005.63 1004.68 1003.97 1003.53 1003.35 1003.41 1003.66 1004.03 1004.49 1005.00 1005.54 1006.13 1006.76 1007.45 1008.18 1008.95 1009.74 1010.51 1011.24 1011.88 1012.42 1012.87 1013.22 1013.51 1013.76 1014.00 1014.25 1014.53 1014.83 1015.15 1015.46 1015.76 1016.03 1016.27 1016.48 1016.68 1016.87 1017.07
1009.09 1009.58 1010.03 1010.37 1010.52 1010.40 1009.99 1009.30 1008.38 1007.30 1006.18 1005.11 1004.18 1003.45 1002.96 1002.70 1002.66 1002.80 1003.08 1003.45 1003.90 1004.40 1004.97 1005.60 1006.30 1007.06 1007.87 1008.70 1009.52 1010.30 1010.99 1011.59 1012.08 1012.47 1012.79 1013.07 1013.32 1013.58 1013.86 1014.17 1014.49 1014.82 1015.13 1015.43 1015.71 1015.95 1016.18 1016.40 1016.63
Thickness
5803 5808 5811 5808 5802 5801 5797 5803 5808 5806 5809 5815 5815 5811 5806 5801 5795 5787 5807 5814 5812 5809 5803 5794 5789 5787 5784 5782 5780 5778 5776 5774 5773 5771 5770 5769 5768 5766 5765 5765 5764 5763 5762 5762 5761 5761 5761 5760 5759
5808 5810 5807 5806 5799 5790 5793 5805 5803 5805 5810 5814 5813 5809 5805 5803 5808 5806 5809 5809 5809 5807 5801 5795 5787 5784 5782 5780 5777 5776 5774 5772 5770 5769 5768 5767 5765 5764 5763 5762 5761 5760 5760 5759 5759 5758 5758 5757 5757
5808 5808 5804 5804 5796 5792 5793 5803 5805 5809 5813 5810 5807 5808 5804 5801 5805 5806 5809 5808 5807 5804 5800 5791 5785 5782 5780 5777 5775 5773 5771 5769 5768 5767 5766 5764 5762 5761 5760 5760 5759 5758 5757 5756 5756 5756 5756 5755 5754
5806 5803 5803 5797 5792 5800 5802 5805 5807 5805 5808 5810 5807 5801 5805 5807 5807 5809 5809 5807 5805 5802 5798 5789 5782 5779 5777 5775 5772 5770 5768 5767 5765 5764 5763 5761 5760 5758 5758 5757 5756 5755 5754 5753 5753 5754 5754 5753 5752
5804 5800 5793 5790 5794 5802 5808 5809 5809 5804 5804 5806 5805 5798 5798 5807 5810 5809 5806 5804 5801 5799 5795 5787 5779 5776 5774 5772 5770 5767 5765 5764 5762 5761 5759 5758 5757 5756 5755 5754 5753 5752 5751 5751 5751 5751 5751 5750 5749
5797 5797 5786 5785 5792 5800 5807 5810 5808 5805 5805 5805 5803 5797 5798 5806 5805 5804 5804 5801 5800 5795 5791 5784 5776 5773 5771 5769 5767 5765 5763 5761 5759 5758 5756 5755 5754 5753 5753 5751 5750 5749 5749 5748 5748 5748 5747 5746 5746
5791 5790 5786 5789 5789 5794 5801 5809 5805 5804 5802 5805 5807 5797 5798 5802 5804 5804 5802 5799 5796 5793 5788 5782 5778 5772 5768 5766 5764 5762 5760 5758 5757 5755 5754 5752 5751 5750 5750 5749 5748 5747 5747 5746 5745 5745 5744 5743 5743
5796 5790 5786 5788 5786 5790 5803 5806 5807 5805 5804 5812 5810 5797 5796 5800 5803 5801 5798 5795 5792 5789 5786 5781 5778 5773 5769 5766 5761 5759 5757 5756 5754 5753 5751 5750 5749 5748 5747 5747 5746 5745 5745 5744 5743 5742 5741 5740 5740
5792 5780 5782 5788 5787 5793 5801 5800 5805 5811 5807 5806 5809 5807 5806 5805 5800 5795 5791 5788 5786 5783 5782 5780 5777 5773 5769 5766 5761 5757 5755 5754 5753 5751 5749 5748 5749 5749 5747 5745 5743 5743 5743 5742 5741 5740 5739 5738 5737
5783 5776 5786 5796 5799 5796 5798 5797 5800 5801 5798 5799 5801 5803 5804 5800 5796 5791 5787 5784 5782 5779 5779 5778 5774 5771 5768 5765 5760 5758 5756 5753 5753 5752 5750 5749 5748 5747 5746 5742 5741 5741 5740 5740 5739 5738 5737 5738 5739
5782 5779 5791 5797 5800 5798 5795 5797 5802 5796 5792 5799 5799 5798 5798 5795 5793 5790 5788 5786 5783 5780 5776 5776 5772 5768 5765 5763 5760 5758 5756 5753 5752 5750 5748 5747 5746 5745 5745 5743 5741 5740 5739 5740 5737 5738 5738 5738 5737
5779 5784 5789 5793 5797 5794 5793 5796 5796 5795 5798 5807 5807 5803 5798 5793 5792 5790 5788 5786 5783 5779 5775 5773 5770 5766 5763 5761 5759 5756 5755 5753 5752 5749 5747 5746 5745 5744 5743 5742 5740 5740 5739 5737 5737 5736 5735 5734 5734
5776 5781 5787 5792 5793 5793 5792 5791 5793 5796 5804 5806 5804 5801 5797 5795 5793 5792 5790 5787 5782 5777 5773 5771 5767 5763 5759 5757 5756 5755 5753 5752 5749 5747 5745 5743 5743 5742 5741 5739 5737 5738 5736 5735 5733 5732 5731 5731 5731
5779 5780 5784 5789 5791 5792 5786 5790 5791 5795 5802 5800 5798 5796 5796 5794 5792 5790 5787 5783 5780 5775 5772 5769 5765 5761 5757 5754 5753 5752 5751 5748 5748 5746 5743 5740 5740 5738 5737 5734 5733 5733 5732 5732 5730 5729 5728 5728 5728
5778 5773 5778 5786 5789 5791 5786 5781 5789 5799 5799 5795 5795 5794 5793 5792 5791 5788 5786 5783 5779 5774 5771 5767 5763 5759 5756 5754 5753 5751 5748 5746 5744 5742 5739 5737 5736 5734 5732 5731 5730 5730 5728 5726 5726 5725 5724 5724 5724
5772 5768 5768 5782 5786 5787 5777 5774 5793 5800 5794 5790 5791 5791 5789 5788 5789 5789 5787 5782 5779 5775 5769 5765 5763 5758 5754 5752 5750 5749 5746 5743 5741 5739 5737 5734 5733 5731 5729 5728 5728 5725 5724 5724 5723 5722 5721 5720 5720
5764 5761 5765 5775 5783 5782 5776 5775 5790 5795 5790 5787 5788 5787 5786 5784 5786 5786 5785 5781 5778 5774 5769 5764 5760 5757 5754 5750 5748 5745 5742 5740 5737 5735 5734 5731 5729 5727 5727 5726 5724 5721 5721 5721 5721 5719 5717 5716 5715
5757 5762 5764 5766 5778 5775 5772 5775 5785 5790 5787 5785 5786 5785 5783 5782 5782 5784 5783 5780 5777 5773 5768 5763 5758 5755 5752 5748 5743 5741 5739 5737 5734 5732 5730 5729 5727 5725 5724 5723 5721 5720 5719 5717 5716 5714 5712 5712 5711
5761 5759 5759 5768 5779 5770 5768 5772 5781 5786 5784 5783 5783 5783 5781 5781 5783 5782 5780 5778 5774 5770 5765 5761 5756 5752 5748 5745 5741 5738 5735 5733 5731 5729 5726 5725 5724 5722 5720 5720 5718 5717 5716 5714 5713 5711 5709 5707 5707
5753 5751 5757 5766 5773 5766 5766 5770 5780 5782 5780 5781 5780 5779 5779 5779 5778 5777 5775 5774 5771 5767 5762 5758 5754 5750 5746 5743 5740 5737 5734 5731 5729 5727 5723 5722 5720 5718 5718 5716 5715 5714 5712 5710 5709 5707 5706 5705 5704
5750 5750 5754 5755 5763 5766 5760 5762 5771 5777 5779 5778 5779 5779 5779 5777 5774 5773 5772 5770 5769 5764 5760 5757 5752 5748 5744 5740 5737 5734 5730 5728 5726 5722 5720 5719 5717 5715 5714 5713 5712 5710 5710 5708 5706 5704 5702 5701 5701
5743 5758 5755 5752 5749 5755 5757 5748 5764 5770 5769 5770 5773 5775 5776 5775 5774 5773 5771 5768 5766 5763 5759 5754 5749 5744 5740 5737 5735 5731 5727 5724 5723 5721 5719 5716 5714 5712 5711 5709 5708 5707 5707 5705 5704 5703 5701 5698 5697
5751 5760 5754 5751 5748 5747 5755 5749 5761 5767 5760 5764 5769 5771 5772 5773 5773 5770 5769 5767 5764 5761 5757 5751 5746 5741 5737 5735 5732 5728 5726 5723 5721 5718 5715 5712 5712 5710 5709 5707 5705 5704 5704 5702 5701 5699 5697 5697 5696
5754 5749 5747 5748 5746 5732 5748 5745 5750 5763 5761 5762 5765 5766 5767 5769 5769 5767 5766 5763 5759 5757 5752 5748 5742 5737 5733 5731 5729 5725 5722 5719 5716 5713 5710 5709 5709 5708 5706 5704 5702 5701 5701 5699 5698 5696 5695 5695 5694
5742 5731 5724 5724 5727 5734 5750 5742 5747 5762 5764 5761 5761 5761 5762 5763 5763 5762 5759 5756 5753 5750 5748 5744 5738 5733 5730 5727 5725 5722 5719 5716 5712 5711 5709 5707 5707 5705 5703 5703 5700 5699 5698 5696 5696 5694 5694 5692 5690
5735 5732 5720 5715 5723 5738 5743 5738 5750 5761 5762 5761 5761 5760 5757 5757 5757 5755 5753 5750 5748 5745 5742 5740 5735 5730 5727 5724 5721 5719 5716 5714 5712 5709 5708 5706 5705 5704 5702 5700 5699 5697 5696 5695 5694 5693 5692 5690 5688
5730 5731 5742 5732 5732 5729 5738 5742 5748 5754 5753 5754 5754 5753 5750 5750 5749 5748 5747 5745 5743 5740 5737 5734 5730 5726 5723 5720 5717 5714 5712 5710 5708 5706 5705 5704 5702 5702 5700 5699 5697 5696 5695 5693 5691 5691 5689 5687 5686
5740 5738 5728 5723 5712 5712 5726 5733 5735 5741 5742 5745 5746 5746 5745 5744 5743 5742 5741 5739 5737 5735 5732 5729 5725 5723 5720 5717 5714 5712 5709 5707 5705 5704 5702 5701 5700 5699 5698 5697 5695 5694 5693 5691 5689 5688 5687 5685 5683
5725 5726 5726 5728 5728 5715 5712 5725 5742 5738 5739 5739 5740 5742 5741 5739 5737 5736 5734 5733 5732 5730 5727 5723 5720 5718 5715 5713 5710 5708 5706 5704 5702 5701 5700 5699 5698 5696 5695 5694 5693 5692 5690 5689 5686 5686 5684 5682 5681
5730 5727 5723 5712 5716 5722 5719 5720 5739 5737 5737 5735 5735 5736 5735 5732 5731 5730 5728 5727 5724 5722 5720 5716 5714 5713 5711 5709 5707 5705 5703 5701 5699 5698 5697 5696 5694 5694 5693 5692 5690 5689 5688 5686 5684 5682 5682 5680 5678